TimeCST,TemperatureF,Dew PointF,Humidity,Sea Level PressureIn,VisibilityMPH,Wind Direction,Wind SpeedMPH,Gust SpeedMPH,PrecipitationIn,Events,Conditions,WindDirDegrees,DateUTC
12:19 AM,53.6,51.8,94,29.94,5.0,Calm,Calm,-,N/A,,Overcast,0,2012-12-07 06:19:00
12:31 AM,53.6,51.8,94,29.93,5.0,SE,3.5,-,N/A,,Overcast,140,2012-12-07 06:31:00
12:46 AM,53.6,51.8,94,29.93,5.0,Calm,Calm,-,N/A,,Overcast,0,2012-12-07 06:46:00
12:53 AM,53.1,52.0,96,29.93,5.0,SE,3.5,-,N/A,,Overcast,140,2012-12-07 06:53:00
1:53 AM,53.1,51.1,93,29.93,4.0,Calm,Calm,-,N/A,,Overcast,0,2012-12-07 07:53:00
2:23 AM,53.6,51.8,94,29.92,1.8,Calm,Calm,-,N/A,,Overcast,0,2012-12-07 08:23:00
2:33 AM,53.6,51.8,94,29.91,0.5,Calm,Calm,-,N/A,Fog,Fog,0,2012-12-07 08:33:00
2:42 AM,53.6,51.8,94,29.92,0.2,Calm,Calm,-,N/A,Fog,Fog,0,2012-12-07 08:42:00
2:53 AM,53.1,52.0,96,29.91,0.2,Calm,Calm,-,N/A,Fog,Fog,0,2012-12-07 08:53:00
3:22 AM,53.6,53.6,100,29.91,0.8,SE,3.5,-,N/A,,Mist,140,2012-12-07 09:22:00
3:35 AM,53.6,53.6,100,29.91,1.2,Calm,Calm,-,N/A,,Overcast,0,2012-12-07 09:35:00
3:53 AM,54.0,53.1,97,29.91,1.2,SE,3.5,-,N/A,,Overcast,140,2012-12-07 09:53:00
4:14 AM,53.6,53.6,100,29.90,0.5,Calm,Calm,-,N/A,Fog,Fog,0,2012-12-07 10:14:00
4:53 AM,53.1,53.1,100,29.90,0.8,Calm,Calm,-,0.00,Rain,Light Rain,0,2012-12-07 10:53:00
5:06 AM,53.6,53.6,100,29.90,1.5,Calm,Calm,-,0.03,Rain,Light Rain,0,2012-12-07 11:06:00
5:14 AM,53.6,53.6,100,29.89,2.0,Calm,Calm,-,0.04,Rain,Light Rain,0,2012-12-07 11:14:00
5:21 AM,53.6,53.6,100,29.89,2.0,SE,3.5,-,0.04,,Overcast,130,2012-12-07 11:21:00
5:35 AM,53.6,53.6,100,29.89,1.8,Calm,Calm,-,0.04,,Overcast,0,2012-12-07 11:35:00
5:39 AM,53.6,53.6,100,29.90,2.0,Calm,Calm,-,0.04,,Overcast,0,2012-12-07 11:39:00
5:50 AM,53.6,53.6,100,29.89,2.0,Calm,Calm,-,0.04,,Overcast,0,2012-12-07 11:50:00
5:51 AM,54.0,53.1,97,29.89,2.0,Calm,Calm,-,0.04,,Overcast,0,2012-12-07 11:51:00
6:08 AM,55.4,53.6,94,29.90,3.0,Calm,Calm,-,N/A,,Overcast,0,2012-12-07 12:08:00
6:53 AM,55.9,55.0,97,29.91,5.0,SSW,4.6,-,0.00,Rain,Light Rain,210,2012-12-07 12:53:00
7:38 AM,57.2,55.4,94,29.90,5.0,South,8.1,-,0.01,,Overcast,190,2012-12-07 13:38:00
7:53 AM,57.0,55.0,93,29.90,6.0,SSW,5.8,-,0.01,,Overcast,200,2012-12-07 13:53:00
8:22 AM,57.2,55.4,94,29.90,6.0,South,3.5,-,N/A,,Overcast,190,2012-12-07 14:22:00
8:53 AM,57.0,55.0,93,29.91,4.0,SSW,5.8,-,0.00,Rain,Light Rain,200,2012-12-07 14:53:00
9:39 AM,57.2,55.4,94,29.92,2.5,SW,6.9,-,0.03,Rain,Light Rain,220,2012-12-07 15:39:00
9:46 AM,57.2,55.4,94,29.92,6.0,SW,8.1,-,0.03,,Overcast,220,2012-12-07 15:46:00
9:53 AM,57.9,55.9,93,29.92,6.0,SW,6.9,-,0.03,,Overcast,220,2012-12-07 15:53:00
10:53 AM,59.0,57.0,93,29.90,5.0,SSW,5.8,-,N/A,,Overcast,210,2012-12-07 16:53:00
11:23 AM,59.0,57.2,94,29.88,6.0,SSW,6.9,-,N/A,,Overcast,210,2012-12-07 17:23:00
11:53 AM,60.1,57.0,90,29.87,6.0,SW,6.9,-,N/A,,Overcast,230,2012-12-07 17:53:00
12:16 PM,60.8,55.4,82,29.86,7.0,SSW,6.9,-,N/A,,Overcast,210,2012-12-07 18:16:00
12:25 PM,60.8,55.4,82,29.86,7.0,SW,10.4,-,N/A,,Overcast,220,2012-12-07 18:25:00
12:53 PM,61.0,55.9,83,29.85,8.0,SSW,8.1,-,N/A,,Overcast,210,2012-12-07 18:53:00
1:07 PM,60.8,55.4,82,29.84,8.0,SSW,10.4,-,N/A,,Overcast,210,2012-12-07 19:07:00
1:53 PM,60.1,55.0,83,29.83,8.0,SW,6.9,-,N/A,,Overcast,220,2012-12-07 19:53:00
2:14 PM,60.8,55.4,82,29.83,9.0,SW,9.2,-,N/A,,Mostly Cloudy,220,2012-12-07 20:14:00
2:53 PM,61.0,55.0,81,29.83,8.0,SW,6.9,-,N/A,,Partly Cloudy,220,2012-12-07 20:53:00
3:40 PM,60.8,55.4,82,29.83,8.0,SW,4.6,-,N/A,,Overcast,230,2012-12-07 21:40:00
3:53 PM,60.1,55.0,83,29.84,8.0,WSW,5.8,-,N/A,,Overcast,240,2012-12-07 21:53:00
4:31 PM,59.0,55.4,88,29.84,8.0,SW,3.5,-,N/A,,Overcast,220,2012-12-07 22:31:00
4:53 PM,57.9,55.0,90,29.84,9.0,South,3.5,-,N/A,,Mostly Cloudy,180,2012-12-07 22:53:00
5:53 PM,55.9,54.0,93,29.86,7.0,Calm,Calm,-,N/A,,Overcast,0,2012-12-07 23:53:00
6:53 PM,57.2,53.6,88,29.87,7.0,Calm,Calm,-,N/A,,Overcast,0,2012-12-08 00:53:00
7:53 PM,59.0,54.0,83,29.86,9.0,SSW,4.6,-,N/A,,Overcast,210,2012-12-08 01:53:00
8:53 PM,57.9,54.0,87,29.86,8.0,South,3.5,-,N/A,,Overcast,170,2012-12-08 02:53:00
9:53 PM,57.9,55.0,90,29.86,6.0,South,3.5,-,N/A,,Mostly Cloudy,180,2012-12-08 03:53:00
10:29 PM,57.2,55.4,94,29.87,6.0,SSW,3.5,-,N/A,,Overcast,200,2012-12-08 04:29:00
10:53 PM,57.9,55.9,93,29.86,5.0,South,3.5,-,N/A,,Overcast,190,2012-12-08 04:53:00
11:25 PM,57.2,55.4,94,29.85,5.0,Calm,Calm,-,N/A,,Overcast,0,2012-12-08 05:25:00
11:44 PM,57.2,55.4,94,29.85,5.0,SSW,3.5,-,N/A,,Overcast,210,2012-12-08 05:44:00
11:53 PM,57.9,55.9,93,29.85,5.0,SSW,3.5,-,N/A,,Overcast,210,2012-12-08 05:53:00